Вернуться в каталог

DELTA 1 DEB

АктивенUNKNOWN
NORAD 14839·DEBRIS·🇺🇸 United States

Запущен Jul 14, 1977 с Cape Canaveral Space Force Station

Loading…

Ближайшие Пролёты (ближайшие 24 часа)

TLE

СвежийSource: Space-Track

Эпоха: Sep 14, 2026, 14:12 UTC

1 14839U 77065FU  26257.59204487  .00001174  00000-0  38177-2 0  9992
2 14839  28.9899  35.2473 0977519 159.2574 298.2998 11.92976680170483

Отслеживайте DELTA 1 DEB в реальном времени с AllMySat

Download on the App Store